Temperature
22 21 20 19 19 19 19 19 18 18 18 18 18 17 17 17 17 17 17 17 16 16 16 16 16 16 16 16 16 16 17 17 17 17 17 17 17 17 17 17 17 17 17
22 21 20 20 19 19 19 19 18 18 18 18 18 17 17 17 17 17 17 17 16 16 16 16 16 16 16 16 16 16 16 16 16 17 17 18 17 17 17 17 17 17 17
22 21 20 20 19 19 19 19 18 18 18 18 17 17 17 17 17 17 17 17 16 16 16 16 16 16 16 16 16 16 16 16 16 16 17 18 18 18 17 17 16 16 17
23 22 21 20 20 19 19 19 19 18 18 18 17 17 17 17 17 17 16 16 16 16 16 16 16 16 16 16 16 16 16 16 16 16 16 16 17 17 17 17 17 16 16
23 22 21 20 20 19 19 19 18 18 18 18 17 17 17 17 16 16 16 16 16 16 16 16 16 16 16 16 16 16 16 16 16 16 16 16 16 16 17 17 16 16 16
23 22 21 20 20 20 19 19 18 18 18 18 17 17 17 17 16 16 16 16 16 16 16 16 16 16 16 16 16 16 16 16 16 16 16 16 16 16 16 16 16 16 16
23 22 21 20 20 20 19 19 18 18 18 18 17 17 17 17 16 16 16 16 16 16 16 16 16 16 16 16 16 16 16 15 15 15 15 15 15 16 16 16 16 16 16
23 22 21 20 20 20 19 19 18 18 18 17 17 17 17 16 16 16 16 16 16 16 16 16 16 16 16 16 16 15 15 15 15 15 15 15 15 15 15 15 16 16 16
23 22 21 21 20 20 19 19 18 18 17 17 17 17 17 16 16 16 16 16 16 16 16 16 16 16 16 15 15 15 15 15 15 15 15 15 15 15 15 15 15 15 16
23 22 22 21 20 20 19 18 18 18 17 17 17 17 17 16 16 16 16 16 16 16 15 15 15 15 15 15 15 15 15 15 15 15 15 15 15 15 15 15 14 15 15
23 22 21 21 20 19 19 18 18 17 17 17 17 17 17 16 16 16 16 16 16 16 15 15 15 15 15 15 15 15 15 15 14 14 14 14 14 14 14 14 14 14 14
23 22 21 20 20 19 19 18 18 17 17 17 17 16 16 16 16 16 16 15 15 15 15 15 15 15 15 15 15 14 14 14 14 14 14 14 14 14 14 14 14 14 14
22 22 21 20 20 19 19 18 18 18 17 17 17 16 16 16 16 16 15 15 15 15 15 15 15 15 15 14 14 14 14 14 14 14 14 14 14 14 14 13 13 13 14
22 21 21 20 19 19 18 18 18 17 17 17 17 16 16 16 16 16 15 15 15 15 15 15 15 14 14 14 14 14 14 14 13 13 13 13 13 13 13 13 13 13 13
22 21 20 20 19 18 18 18 18 17 17 17 17 16 16 16 15 15 15 15 15 15 15 14 14 14 14 14 14 14 13 13 13 13 13 13 13 13 13 13 13 13 13
22 21 20 19 19 18 18 18 17 17 17 17 17 16 16 16 15 15 15 15 15 14 14 14 14 14 14 14 14 13 13 13 13 13 12 12 13 13 13 13 12 12 12
22 20 20 19 19 18 18 18 17 17 17 17 16 16 16 16 15 15 15 15 14 14 14 14 14 14 14 14 13 13 13 13 12 12 12 12 12 12 12 12 12 12 12
21 20 20 19 19 18 18 18 17 17 16 16 16 16 16 16 15 15 15 15 14 14 14 13 13 13 13 13 13 13 12 12 12 12 12 12 12 12 12 12 12 12 11
21 20 20 20 19 18 18 17 17 17 17 16 16 16 16 15 15 15 15 14 14 14 13 13 13 13 13 13 13 13 12 12 12 12 12 12 11 12 12 11 11 11 11
20 20 19 19 18 18 18 17 17 16 16 16 16 16 15 15 15 15 14 14 14 14 13 13 13 13 13 13 13 12 12 12 12 12 12 12 11 11 11 11 11 11 11
19 19 19 18 18 18 17 17 16 16 16 16 16 15 15 15 14 14 14 14 13 13 13 13 13 13 12 12 12 12 12 12 12 12 12 11 11 11 11 11 11 11 11
19 19 18 18 17 17 17 16 16 16 15 15 15 15 15 14 14 14 14 13 13 13 13 13 12 12 12 12 12 12 12 11 11 11 11 11 11 11 11 11 11 11 11
18 18 18 17 17 17 17 16 16 15 15 15 15 15 14 14 13 13 13 13 13 13 13 13 13 12 12 12 12 12 11 11 11 11 11 11 11 11 11 11 11 10 10
18 17 17 17 17 17 16 16 16 15 15 14 14 14 14 13 13 13 13 13 13 13 13 13 13 13 12 12 12 11 11 11 11 11 11 10 10 10 10 10 10 10 10
17 17 17 17 16 16 16 16 15 15 14 14 14 14 13 13 13 13 13 13 13 13 12 13 12 12 12 12 11 11 11 10 10 10 10 10 10 10 10 10 10 10 10
17 16 16 16 16 16 15 15 15 15 14 14 14 14 14 13 13 13 13 13 13 12 12 12 12 12 12 11 11 11 11 10 10 10 10 10 10 10 10 10 10 10 10
Wind_Speed
6 6 5 5 5 4 4 3 2 2 1 0 1 0 0 0 0 0 1 1 2 2 2 2 1 2 2 2 2 2 2 2 1 2 2 3 3 2 2 3 2 3 3
6 7 6 6 5 5 4 4 3 2 1 0 0 1 1 1 0 1 1 1 1 1 1 2 2 2 1 2 2 2 2 2 2 2 2 2 4 4 3 3 3 3 3
7 7 7 6 6 5 5 4 3 3 2 1 1 1 0 0 0 0 0 1 1 1 2 2 2 2 2 1 2 2 3 2 2 2 2 2 2 1 3 2 2 1 2
6 7 8 7 7 6 5 5 4 3 3 2 1 1 0 1 1 1 1 1 1 2 2 2 2 2 2 1 2 1 2 3 3 2 2 2 2 2 1 2 2 2 2
6 6 7 7 7 6 6 5 5 4 3 3 2 1 1 0 1 1 2 1 1 2 2 2 2 2 2 2 2 1 3 3 3 2 2 2 1 3 2 2 1 1 2
6 6 6 6 6 6 6 5 5 4 4 3 3 2 1 1 1 1 1 1 1 1 2 2 2 2 2 2 2 2 2 2 2 2 1 2 2 2 2 3 3 3 2
7 7 7 6 6 6 6 5 5 5 5 4 3 3 2 2 1 2 1 2 2 1 2 2 2 2 2 2 2 1 1 2 2 2 2 2 3 3 3 4 3 3 3
6 7 7 7 6 6 6 5 5 5 5 4 4 3 3 2 1 1 2 2 2 2 2 2 2 2 2 2 1 1 1 1 2 2 2 3 3 3 3 3 3 3 4
6 7 7 7 6 6 5 5 5 5 4 4 4 3 3 2 2 1 2 2 2 2 2 2 2 2 2 1 1 1 1 1 2 2 2 3 2 3 3 3 3 4 4
7 7 7 6 6 5 5 5 5 4 4 4 3 3 3 2 2 1 1 2 2 2 2 2 2 2 1 1 1 1 1 1 1 2 2 3 3 3 3 3 3 4 5
6 7 6 6 6 6 6 5 5 4 4 3 3 2 2 2 1 1 1 1 1 1 1 2 2 2 2 2 2 2 1 2 2 2 2 2 3 2 3 3 3 4 4
6 6 7 7 6 6 6 5 4 4 4 3 3 2 2 1 1 1 1 1 1 1 1 1 2 2 2 2 2 3 2 2 2 2 2 2 2 2 3 3 3 3 3
6 6 7 7 6 6 5 5 4 4 4 4 3 3 2 2 1 0 1 1 1 1 1 1 2 2 2 2 2 2 2 2 3 3 3 3 3 3 3 3 3 3 3
6 6 7 7 6 6 6 5 4 4 4 4 4 3 2 1 1 1 1 0 0 1 1 2 2 1 2 2 2 2 2 3 3 3 3 3 3 3 3 3 3 3 3
6 6 6 6 6 6 6 5 4 4 4 4 4 3 3 2 1 1 0 0 0 0 1 2 2 2 1 2 3 2 2 2 3 3 3 2 3 4 3 3 3 3 3
5 5 5 5 6 6 6 5 5 4 4 4 3 3 3 2 2 1 1 1 0 0 1 0 1 1 2 4 4 4 2 2 3 3 3 2 1 1 1 2 3 3 3
4 4 5 5 5 5 5 5 5 5 5 4 3 3 3 3 2 2 1 1 1 1 0 1 1 1 2 2 2 3 3 2 2 3 3 3 2 2 2 1 2 2 3
3 4 4 5 5 6 6 5 6 5 5 4 3 3 3 3 3 2 2 1 1 1 1 1 1 1 1 1 2 4 3 2 2 2 2 2 3 3 3 3 2 3 3
4 4 4 4 4 5 5 5 5 4 4 4 4 3 3 3 3 2 2 1 1 1 1 1 2 2 1 0 2 5 3 2 2 2 2 2 2 2 3 3 3 3 3
4 4 4 5 5 4 5 5 4 3 3 3 3 3 3 3 3 3 2 1 2 2 2 1 2 2 2 1 1 5 4 3 2 2 2 1 1 1 3 3 3 4 4
4 4 5 5 4 4 4 4 3 3 2 2 2 2 2 3 3 2 2 2 2 1 2 1 2 1 1 1 1 3 3 4 3 3 2 1 2 1 4 5 4 5 5
4 4 5 5 5 4 4 4 3 2 2 2 2 2 2 2 2 2 2 2 2 3 2 2 2 2 2 1 1 2 4 6 4 4 3 2 1 3 5 4 4 5 6
4 4 4 5 4 4 4 3 2 2 2 2 2 2 2 2 2 2 3 3 3 3 3 2 3 2 2 2 5 5 5 6 4 3 3 2 3 5 4 4 5 5 5
4 4 4 4 4 3 3 2 2 2 2 2 2 2 2 2 2 2 3 3 3 3 3 3 3 3 3 2 2 2 3 4 4 3 2 4 6 6 4 3 3 4 4
3 3 3 3 3 3 3 3 3 3 3 2 2 2 2 2 3 3 3 4 3 2 3 3 4 4 3 2 3 4 3 3 3 4 4 4 4 3 3 3 3 3 4
3 3 3 2 3 3 3 3 3 3 3 3 3 3 3 2 3 3 3 1 2 2 1 3 4 3 2 2 2 3 4 5 5 5 4 4 4 4 4 4 4 4 4
Wind_Direction
173 168 167 160 157 154 152 149 151 138 171 190 293 293 281 281 10 27 19 339 335 335 327 322 319 298 300 308 284 254 226 228 224 229 217 201 192 193 206 209 208 205 212
171 169 174 173 172 168 164 165 172 165 199 186 333 345 351 314 46 13 35 329 326 308 304 331 309 311 301 288 275 258 270 252 228 251 244 219 197 202 206 202 206 214 215
184 176 180 184 183 179 176 177 177 176 191 191 171 105 89 305 37 25 23 5 344 327 334 337 331 324 297 305 290 263 252 255 241 244 271 268 264 193 178 190 190 203 214
185 180 179 185 187 184 178 175 172 176 177 184 197 200 26 359 10 3 22 19 8 349 341 341 338 326 329 324 283 277 257 252 249 230 258 292 330 280 220 185 178 187 213
186 179 176 181 185 181 179 173 168 172 174 178 177 199 234 310 7 13 27 350 22 8 355 360 353 338 335 336 324 315 272 253 262 263 255 255 254 270 273 257 263 240 224
181 174 166 169 177 178 179 173 168 171 172 176 178 204 224 264 326 347 350 327 17 10 3 354 345 323 336 332 310 294 259 271 278 284 278 263 265 260 262 262 258 263 270
176 171 171 172 174 175 178 173 171 173 175 179 188 200 215 218 238 283 312 326 343 336 346 340 330 324 323 310 302 275 285 265 257 265 273 271 270 279 270 263 266 270 270
171 169 173 174 173 170 169 172 174 178 180 183 193 204 223 236 256 285 311 326 326 328 339 338 327 319 308 307 304 282 266 251 247 253 266 271 273 277 274 274 280 274 270
165 170 171 169 164 161 162 168 170 176 183 186 193 202 214 242 268 280 289 311 327 331 350 329 325 332 328 325 297 312 282 257 250 252 244 257 265 258 260 268 267 269 276
162 165 164 164 158 156 154 158 159 168 177 180 196 190 206 214 226 263 313 319 329 343 338 334 332 329 325 310 279 270 274 247 255 272 287 279 272 268 258 257 257 261 264
160 159 158 156 155 157 154 155 157 160 164 169 180 193 194 198 212 229 273 288 318 338 336 335 328 322 324 330 315 310 312 289 280 271 270 274 286 278 273 269 266 264 263
154 155 154 154 157 160 159 156 159 161 162 160 170 174 185 191 212 222 296 304 321 332 337 329 324 320 330 330 326 326 328 300 292 291 291 286 277 275 277 286 281 278 272
153 156 158 159 161 161 158 160 166 159 158 158 164 156 164 169 185 238 301 312 342 345 347 346 337 334 342 341 336 336 326 312 314 314 310 305 298 286 290 284 281 285 282
159 164 165 168 164 162 162 168 172 166 164 168 169 166 178 190 207 216 204 241 320 0 0 359 350 353 356 343 333 335 336 330 325 321 319 321 316 306 296 278 281 286 288
164 167 172 167 167 166 170 175 175 173 172 177 181 179 182 182 194 210 214 188 18 20 21 9 358 348 341 343 331 319 330 332 323 321 322 331 352 356 328 314 312 301 287
168 165 166 166 168 171 175 174 178 179 178 185 186 183 190 191 195 198 206 199 187 307 26 10 323 338 355 33 1 321 316 323 320 319 315 303 293 318 251 323 322 314 292
160 164 168 170 170 173 176 178 177 179 180 184 188 190 195 191 192 196 185 202 201 159 112 300 314 329 10 23 336 312 300 300 310 316 316 319 360 347 318 275 228 252 246
151 160 168 166 171 172 173 176 172 176 181 186 190 194 200 198 194 195 190 195 187 177 194 279 300 308 358 18 309 297 265 282 299 306 309 312 331 335 328 316 312 299 287
144 160 168 164 166 165 162 166 171 172 183 195 203 207 210 207 201 203 205 199 196 209 235 261 293 289 307 19 297 296 269 259 274 282 293 291 298 5 316 289 296 301 295
134 151 157 158 159 157 158 166 172 178 193 199 206 203 206 208 208 204 207 204 217 230 248 286 301 299 302 96 283 291 280 284 288 277 256 167 288 326 289 279 288 290 299
130 143 154 154 153 156 159 171 175 188 193 189 194 196 203 208 200 193 203 214 228 246 267 274 268 265 281 183 214 290 289 300 293 297 297 345 106 265 277 277 280 290 294
134 140 145 145 151 158 166 179 183 180 177 186 193 190 197 217 186 187 206 218 231 229 239 250 262 248 230 252 197 240 265 298 297 299 308 354 82 278 275 276 287 284 276
143 147 147 146 152 156 170 187 174 170 181 182 183 169 176 211 208 213 217 222 232 247 250 256 265 264 257 197 195 215 234 257 276 300 338 311 255 257 255 239 253 259 267
152 157 162 161 155 161 176 178 166 178 189 188 183 174 182 202 204 234 241 249 253 255 260 268 274 272 257 262 250 250 240 224 251 279 256 228 237 248 268 259 250 266 285
156 161 172 176 173 174 183 175 160 185 199 196 193 198 205 218 224 232 249 256 261 283 281 282 285 288 285 352 359 299 290 299 306 293 277 280 282 281 283 286 287 284 280
168 176 186 183 173 175 179 170 178 193 208 213 214 224 225 220 235 229 224 199 238 159 220 300 302 305 343 351 317 297 296 296 292 278 273 277 284 291 294 293 289 286 291
Height
1526 1527 1528 1529 1530 1530 1530 1531 1531 1530 1530 1530 1530 1529 1528 1528 1527 1527 1526 1525 1525 1525 1524 1524 1523 1523 1523 1522 1523 1522 1522 1522 1523 1523 1523 1524 1524 1524 1524 1525 1526 1527 1528
1524 1526 1527 1528 1529 1529 1529 1530 1530 1530 1530 1530 1529 1528 1528 1527 1527 1526 1526 1525 1525 1524 1524 1522 1523 1522 1522 1521 1521 1521 1521 1522 1522 1522 1523 1523 1524 1523 1524 1523 1524 1525 1526
1522 1523 1525 1527 1528 1528 1529 1529 1529 1529 1529 1529 1529 1528 1527 1527 1527 1526 1526 1525 1524 1524 1523 1522 1522 1521 1521 1521 1520 1520 1520 1521 1521 1521 1522 1522 1521 1522 1523 1522 1523 1523 1524
1520 1521 1523 1525 1526 1527 1528 1528 1528 1528 1528 1528 1529 1528 1528 1527 1527 1526 1526 1525 1524 1523 1523 1522 1521 1520 1521 1520 1520 1520 1520 1520 1521 1521 1520 1521 1521 1522 1522 1522 1522 1521 1522
1517 1519 1521 1523 1525 1526 1527 1527 1527 1527 1527 1528 1528 1528 1528 1527 1527 1526 1526 1525 1524 1523 1522 1521 1521 1520 1520 1519 1519 1519 1519 1519 1520 1520 1520 1520 1520 1520 1521 1521 1521 1521 1521
1516 1518 1520 1522 1523 1525 1526 1526 1526 1526 1526 1527 1527 1527 1527 1527 1527 1526 1526 1525 1524 1523 1522 1521 1520 1519 1519 1518 1518 1517 1518 1518 1518 1518 1519 1519 1519 1519 1520 1519 1519 1519 1520
1514 1516 1518 1520 1522 1523 1524 1525 1524 1525 1525 1526 1526 1526 1526 1526 1526 1526 1525 1525 1524 1523 1522 1521 1519 1519 1518 1517 1517 1516 1516 1516 1516 1517 1517 1518 1518 1518 1518 1518 1518 1517 1517
1512 1515 1517 1519 1520 1521 1522 1523 1523 1524 1524 1525 1525 1525 1526 1526 1526 1525 1525 1524 1524 1523 1521 1520 1519 1518 1517 1517 1516 1516 1515 1515 1515 1516 1515 1516 1516 1516 1516 1516 1516 1515 1515
1511 1513 1515 1517 1519 1520 1521 1522 1522 1523 1523 1524 1524 1524 1524 1524 1524 1524 1524 1524 1522 1522 1521 1519 1518 1517 1516 1515 1515 1515 1514 1514 1514 1514 1513 1513 1514 1514 1514 1514 1514 1514 1513
1510 1512 1514 1516 1518 1519 1520 1521 1521 1522 1522 1523 1524 1524 1523 1523 1523 1523 1522 1522 1521 1520 1520 1518 1518 1517 1515 1514 1514 1514 1513 1512 1512 1512 1512 1511 1512 1512 1512 1512 1512 1512 1512
1509 1511 1513 1515 1517 1518 1519 1520 1521 1521 1522 1522 1522 1523 1522 1522 1522 1522 1521 1520 1520 1519 1518 1517 1516 1516 1515 1514 1513 1513 1512 1511 1511 1510 1510 1510 1509 1509 1510 1510 1509 1509 1509
1508 1510 1513 1514 1516 1517 1519 1520 1521 1521 1521 1522 1522 1522 1521 1521 1521 1521 1520 1520 1519 1518 1517 1516 1515 1515 1514 1513 1512 1511 1511 1510 1510 1509 1508 1508 1508 1507 1507 1507 1507 1506 1506
1508 1510 1512 1514 1515 1517 1518 1519 1520 1520 1521 1521 1521 1521 1521 1520 1520 1520 1519 1519 1518 1517 1516 1515 1514 1513 1513 1512 1511 1510 1509 1509 1508 1508 1507 1506 1506 1505 1505 1504 1504 1504 1504
1507 1509 1511 1513 1514 1516 1516 1517 1519 1519 1520 1520 1520 1520 1520 1519 1519 1518 1518 1517 1517 1516 1515 1514 1513 1512 1512 1510 1509 1509 1508 1507 1506 1506 1505 1504 1504 1503 1502 1502 1502 1501 1501
1506 1508 1510 1511 1513 1514 1515 1516 1517 1518 1518 1518 1519 1518 1518 1518 1517 1517 1516 1516 1516 1515 1514 1513 1512 1511 1510 1509 1508 1508 1507 1506 1505 1504 1503 1502 1502 1501 1500 1500 1500 1499 1499
1505 1507 1508 1510 1511 1512 1513 1514 1515 1515 1516 1516 1517 1516 1516 1516 1516 1515 1515 1514 1514 1513 1513 1512 1511 1510 1509 1508 1507 1506 1505 1504 1503 1503 1502 1501 1500 1499 1498 1498 1497 1497 1497
1504 1505 1507 1508 1509 1510 1511 1512 1513 1514 1514 1514 1515 1515 1515 1515 1514 1514 1514 1513 1512 1512 1511 1510 1509 1508 1507 1506 1505 1504 1503 1503 1502 1501 1500 1500 1500 1498 1497 1496 1495 1495 1494
1503 1504 1505 1506 1508 1509 1510 1510 1511 1512 1512 1512 1513 1513 1513 1513 1513 1512 1512 1511 1511 1510 1509 1509 1507 1506 1505 1505 1504 1503 1502 1502 1501 1500 1499 1498 1497 1496 1495 1495 1494 1494 1493
1501 1503 1504 1505 1506 1507 1508 1509 1509 1510 1510 1510 1511 1511 1511 1511 1511 1510 1510 1510 1509 1508 1507 1507 1506 1505 1504 1503 1502 1501 1501 1500 1499 1498 1497 1496 1496 1495 1494 1493 1492 1492 1491
1500 1501 1502 1504 1504 1505 1506 1507 1508 1508 1508 1508 1508 1508 1508 1508 1508 1508 1508 1508 1507 1506 1506 1505 1504 1503 1502 1501 1500 1499 1500 1499 1498 1497 1496 1494 1494 1493 1492 1491 1491 1490 1489
1499 1500 1501 1502 1502 1503 1504 1505 1506 1506 1506 1506 1506 1506 1506 1506 1506 1506 1506 1505 1505 1505 1504 1503 1502 1500 1500 1499 1498 1497 1497 1497 1496 1495 1494 1493 1492 1491 1490 1489 1488 1487 1487
1497 1498 1499 1499 1500 1501 1502 1503 1504 1504 1504 1504 1504 1503 1503 1504 1504 1504 1503 1503 1503 1503 1502 1501 1500 1499 1498 1497 1496 1495 1495 1494 1494 1493 1492 1491 1490 1489 1488 1487 1485 1485 1484
1496 1497 1497 1498 1499 1499 1500 1501 1502 1502 1502 1502 1502 1501 1501 1501 1502 1502 1501 1501 1501 1501 1501 1500 1499 1498 1497 1495 1494 1493 1492 1492 1491 1490 1489 1488 1487 1486 1485 1484 1483 1482 1482
1495 1495 1496 1497 1497 1498 1498 1499 1499 1499 1500 1500 1499 1499 1499 1500 1500 1500 1500 1500 1500 1499 1498 1498 1497 1496 1495 1494 1493 1492 1491 1490 1489 1488 1487 1485 1484 1483 1482 1482 1481 1480 1479
1494 1494 1495 1495 1496 1496 1497 1497 1497 1497 1498 1498 1498 1498 1498 1498 1498 1497 1497 1497 1497 1497 1496 1495 1495 1494 1493 1491 1490 1489 1489 1488 1486 1485 1484 1483 1483 1481 1480 1480 1478 1478 1477
1492 1493 1493 1494 1494 1494 1495 1495 1495 1495 1495 1496 1496 1496 1496 1496 1495 1495 1495 1494 1494 1493 1492 1491 1491 1490 1489 1488 1487 1486 1485 1484 1483 1483 1482 1481 1480 1479 1478 1477 1476 1475 1474